This demonstration page uses our WeatherBlox Daily Observations layout. Learn more.

Left ArrowRight Arrow

Hourly Observations for June 19, 2020

Temp ( °F °C ) Dew Point ( °F °C ) Humidity (%) Winds ( mph kmh ) Pressure ( in mb ) Visibility ( mi km ) Precip ( " mm )
12:53 am 00:53 Clear 47 8.3 41 5 80 80 S 9 15 30.07 1018 10 16 N/A
1:53 am 01:53 Mostly Clear 47 8.3 42 5.6 83 83 N N/A 30.06 1018 10 16 N/A
2:53 am 02:53 Mostly Cloudy 46 7.8 42 5.6 86 86 NNW 3 6 30.05 1018 10 16 N/A
3:53 am 03:53 Mostly Cloudy 45 7.2 43 6.1 93 93 SW 3 6 30.05 1018 10 16 N/A
4:53 am 04:53 Clear 45 7.2 42 5.6 90 90 N N/A 30.04 1017 10 16 N/A
5:53 am 05:53 Sunny 43 6.1 40 4.4 89 89 N N/A 30.04 1017 10 16 N/A
6:53 am 06:53 Mostly Cloudy 48 8.9 43 6.1 83 83 N N/A 30.03 1017 10 16 N/A
7:53 am 07:53 Cloudy with Light Rain 50 10 46 7.8 86 86 N N/A 30.03 1017 9 14 0.01 0.25
8:53 am 08:53 Cloudy 52 11.1 47 8.3 83 83 W 3 6 30.04 1017 10 16 0.00 0.00
9:53 am 09:53 Mostly Cloudy 56 13.3 45 7.2 67 67 N N/A 30.02 1017 10 16 N/A
10:53 am 10:53 Sunny 62 16.7 46 7.8 56 56 VRB 7 11 30.00 1016 10 16 N/A
11:53 am 11:53 Mostly Sunny 66 18.9 47 8.3 50 50 W 6 9 29.98 1015 10 16 N/A
12:53 pm 12:53 Mostly Sunny 68 20 48 8.9 49 49 W 6 9 29.95 1014 10 16 N/A
1:53 pm 13:53 Mostly Sunny 69 20.6 47 8.3 45 45 WNW 7 11 29.93 1013 10 16 N/A
2:42 pm 14:42 Mostly Cloudy with Heavy Rain 59 15 50 10 72 72 SW 12 19 29.87 1011 2 3 0.04 1.02
2:49 pm 14:49 Partly Cloudy with Light Rain 61 16 54 12 77 77 SW 7 11 29.87 1012 3 5 0.10 2.54
2:53 pm 14:53 Partly Cloudy 61 16.1 53 11.7 75 75 SW 7 11 29.93 1014 10 16 0.10 2.54
3:53 pm 15:53 Sunny 69 20.6 49 9.4 49 49 WSW 7 11 29.90 1013 10 16 N/A
4:53 pm 16:53 Mostly Cloudy 69 20.6 48 8.9 47 47 WSW 20 31 29.90 1012 10 16 N/A
5:53 pm 17:53 Mostly Sunny 69 20.6 50 10 51 51 SW 20 31 29.89 1012 10 16 N/A
6:53 pm 18:53 Sunny 68 20 50 10 53 53 WSW 14 22 29.88 1012 10 16 N/A
7:53 pm 19:53 Mostly Sunny 67 19.4 50 10 55 55 WSW 17 28 29.88 1012 10 16 N/A
8:53 pm 20:53 Sunny 63 17.2 51 10.6 65 65 WSW 9 15 29.89 1012 10 16 N/A
9:53 pm 21:53 Clear 58 14.4 50 10 75 75 W 5 7 29.91 1013 10 16 N/A
10:53 pm 22:53 Clear 57 13.9 50 10 78 78 N N/A 29.90 1013 10 16 N/A
11:53 pm 23:53 Mostly Cloudy 56 13.3 50 10 81 81 SW 7 11 29.89 1012 10 16 N/A

Powered by AerisWeather